Grand Junction, CO

2:05 PM MDT on April 30, 2017 (GMT -0600)
Walker

Weather History for KGJT - October, 2012

Change the Weather History Date:

Tuesday, October 2, 2012

  Actual Average Record
Temperature  
Mean Temperature 64 °F 59 °F  
Max Temperature 81 °F 73 °F 87 °F (2000)
Min Temperature 46 °F 45 °F 29 °F (2009)
Degree Days  
Heating Degree Days 1 7  
Month to date heating degree days 4 13  
Since 1 July heating degree days 42 87  
Cooling Degree Days 0 0  
Month to date cooling degree days 0 1  
Year to date cooling degree days 1514 1123  
Growing Degree Days 14 (Base 50)    
Moisture  
Dew Point 28 °F    
Average Humidity 32    
Maximum Humidity 50    
Minimum Humidity 13    
Precipitation  
Precipitation 0.00 in 0.04 in 0.85 in (1931)
Month to date precipitation 0.00 0.08  
Year to date precipitation 3.02 7.12  
Snow  
Snow 0.00 in 0.00 in 0.00 in (2015)
Month to date snowfall 0.0 0.0  
Since 1 July snowfall 0.0 0.0  
Since 1 September snowfall 0.0 0.0  
Snow Depth 0.00 in    
Sea Level Pressure  
Sea Level Pressure 29.93 in    
Wind  
Wind Speed 7 mph (ESE)    
Max Wind Speed 16 mph    
Max Gust Speed 18 mph    
Visibility 10 miles    
Events      
T = Trace of Precipitation, MM = Missing Value Source: NWS Daily Summary

Daily Weather History Graph

Daily Weather History Graph

Search for Another Location

Airport or City:

Trip Planner

Search our weather history database for the weather conditions in past years. The results will help you decide how hot, cold, wet, or windy it might be!

Date:

Astronomy

Oct. 02, 2012 Rise Set
Actual Time 7:11 AM MDT 6:54 PM MDT
Civil Twilight 6:44 AM MDT 7:20 PM MDT
Nautical Twilight 6:13 AM MDT 7:51 PM MDT
Astronomical Twilight 5:42 AM MDT 8:23 PM MDT
Moon 8:10 PM MDT (10/2) 9:40 AM MDT (10/2)
Length of Visible Light 12h 36m
Length of Day
11h 42m
Waning Gibbous, 94% of the Moon is Illuminated
Oct 2
Waning Gibbous
Oct 8
Last Quarter
Oct 15
New
Oct 21
First Quarter
Oct 29
Full

Hourly Weather History & Observations

Time (MDT) Temp. Dew Point Humidity Pressure Visibility Wind Dir Wind Speed Gust Speed Precip Events Conditions
12:53 AM 55.0 °F 28.9 °F 37% 29.99 in 10.0 mi Calm Calm - N/A   Clear
1:53 AM 50.0 °F 30.0 °F 46% 30.00 in 10.0 mi ESE 5.8 mph - N/A   Clear
2:53 AM 55.0 °F 30.0 °F 38% 29.98 in 10.0 mi ESE 11.5 mph - N/A   Clear
3:53 AM 50.0 °F 30.9 °F 48% 29.98 in 10.0 mi SE 9.2 mph - N/A   Clear
4:53 AM 50.0 °F 30.0 °F 46% 29.99 in 10.0 mi SE 10.4 mph - N/A   Clear
5:53 AM 48.0 °F 30.9 °F 52% 30.00 in 10.0 mi ESE 8.1 mph - N/A   Clear
6:53 AM 48.9 °F 30.9 °F 50% 30.01 in 10.0 mi ESE 3.5 mph - N/A   Clear
7:53 AM 50.0 °F 30.9 °F 48% 30.03 in 10.0 mi East 4.6 mph - N/A   Clear
8:53 AM 57.0 °F 30.9 °F 37% 30.03 in 10.0 mi SE 15.0 mph - N/A   Clear
9:53 AM 60.1 °F 33.1 °F 36% 30.03 in 10.0 mi SE 8.1 mph - N/A   Clear
10:53 AM 64.9 °F 30.9 °F 28% 30.00 in 10.0 mi SE 9.2 mph - N/A   Clear
11:53 AM 68.0 °F 30.9 °F 25% 29.98 in 10.0 mi South 4.6 mph - N/A   Clear
12:53 PM 72.0 °F 28.9 °F 20% 29.94 in 10.0 mi Calm Calm - N/A   Clear
1:53 PM 75.9 °F 30.0 °F 19% 29.91 in 10.0 mi West 9.2 mph - N/A   Clear
2:53 PM 78.1 °F 30.0 °F 17% 29.86 in 10.0 mi WNW 8.1 mph - N/A   Clear
3:53 PM 79.0 °F 27.0 °F 15% 29.84 in 10.0 mi WNW 6.9 mph - N/A   Clear
4:53 PM 80.1 °F 24.1 °F 13% 29.83 in 10.0 mi WNW 9.2 mph - N/A   Clear
5:53 PM 78.8 °F 24.8 °F 14% 29.98 in 10.0 mi WNW 8.1 mph - N/A   Clear
6:53 PM 73.9 °F 24.1 °F 16% 29.83 in 10.0 mi North 8.1 mph - N/A   Clear
7:53 PM 66.9 °F 23.0 °F 19% 29.85 in 10.0 mi NNE 6.9 mph - N/A   Clear
8:53 PM 60.1 °F 23.0 °F 24% 29.86 in 10.0 mi Calm Calm - N/A   Clear
9:53 PM 61.0 °F 25.0 °F 25% 29.86 in 10.0 mi East 8.1 mph - N/A   Clear
10:53 PM 60.1 °F 28.0 °F 30% 29.85 in 10.0 mi East 5.8 mph - N/A   Clear
11:53 PM 55.9 °F 27.0 °F 33% 29.86 in 10.0 mi Calm Calm - N/A   Clear